Location: Chinna Viriv?da
(16.5281°N, 81.0493°E)
Time: 15:39:42
(UTC+00:00)

SL-16 R/B - Pass Details

Date: 14 April 2026
Orbit: 841 x 845 km, 71.0° (Epoch: 11 May)

Event Time Altitude Azimuth Distance (km) Brightness Sun altitude
Rises 23:45:18 0° 325° (NW) 3,395 5.1 -9.2°
Reaches altitude 10° 23:48:05 10° 313° (NW) 2,459 4.3 -8.5°
Maximum altitude 23:52:44 27° 257° (WSW) 1,566 3.0 -7.4°
Drops below altitude 10° 23:57:24 10° 201° (SSW) 2,454 4.3 -6.3°
Sets 00:00:12 0° 189° (S) 3,387 5.1 -5.7°
